CW3786 Weather Reports


Display with metric or nautical units.
time (UTC)temp
F
wind
direction
speed
MPH
gust
MPH
rain 1hr
in
rain 24hr
in
rain mn
in
humidity
%
barometer
mb
20260504050540 57 234 0.0 0.0 0.00 0.00 0.00 76 1009.2
20260504045549 57 267 0.0 5.0 0.00 0.00 0.00 76 1009.2
20260504045043 57 225 0.0 0.0 0.00 0.00 0.00 78 1009.2
20260504044613 57 225 0.0 4.0 0.00 0.00 0.00 79 1009.2
20260504044057 57 284 1.0 4.0 0.00 0.00 0.00 79 1009.2
20260504043554 58 280 0.0 6.0 0.00 0.00 0.00 79 1009.2
20260504043115 58 284 1.0 6.0 0.00 0.00 0.00 81 1009.2
20260504042612 58 269 0.0 5.0 0.00 0.00 0.00 79 1009.0
20260504042050 58 246 0.0 4.0 0.00 0.00 0.00 78 1009.0
20260504041545 58 271 0.0 5.0 0.00 0.00 0.00 78 1009.0
20260504041041 58 269 0.0 5.0 0.00 0.00 0.00 77 1008.8
20260504040556 58 269 0.0 1.0 0.00 0.00 0.00 76 1008.8
20260504040050 58 269 0.0 3.0 0.00 0.00 0.00 76 1008.8
20260504035550 58 269 0.0 5.0 0.00 0.00 0.00 76 1008.7
20260504035045 58 248 0.0 4.0 0.00 0.00 0.00 75 1008.7
20260504034602 58 219 0.0 5.0 0.00 0.00 0.00 75 1008.7
20260504034100 58 254 1.0 5.0 0.00 0.00 0.00 75 1008.4
20260504033555 58 284 0.0 3.0 0.00 0.00 0.00 75 1008.4
20260504033111 58 261 0.0 2.0 0.00 0.00 0.00 76 1008.4
20260504032620 58 261 0.0 6.0 0.00 0.00 0.00 75 1008.2
20260504032104 58 267 1.0 7.0 0.00 0.00 0.00 75 1008.2
20260504031542 58 281 3.0 7.0 0.00 0.00 0.00 75 1008.2
20260504031058 58 287 0.0 9.0 0.00 0.00 0.00 75 1008.2
20260504030553 58 275 1.0 9.0 0.00 0.00 0.00 74 1008.2
20260504030108 58 276 0.0 6.0 0.00 0.00 0.00 75 1008.2
20260504025537 58 281 0.0 5.0 0.00 0.00 0.00 75 1008.0
20260504025053 58 253 0.0 7.0 0.00 0.00 0.00 76 1008.0
20260504024549 58 245 1.0 7.0 0.00 0.00 0.00 75 1008.0
20260504024044 58 226 1.0 11.0 0.00 0.00 0.00 75 1007.9
20260504023540 58 275 3.0 11.0 0.00 0.00 0.00 75 1007.9
20260504023036 58 234 0.0 9.0 0.00 0.00 0.00 75 1007.9
20260504022550 58 230 0.0 9.0 0.00 0.00 0.00 75 1007.7
20260504022052 58 236 2.0 6.0 0.00 0.00 0.00 74 1007.7
20260504021609 58 268 0.0 5.0 0.00 0.00 0.00 74 1007.7
20260504021044 58 284 0.0 11.0 0.00 0.00 0.00 73 1007.6
20260504020538 58 286 3.0 11.0 0.00 0.00 0.00 73 1007.6
20260504020112 59 192 1.0 9.0 0.00 0.00 0.00 72 1007.6
20260504015557 59 252 3.0 9.0 0.00 0.00 0.00 72 1007.6
20260504015035 59 272 3.0 9.0 0.00 0.00 0.00 72 1007.6
20260504014534 59 196 2.0 6.0 0.00 0.00 0.00 72 1007.6
20260504014109 60 214 0.0 6.0 0.00 0.00 0.00 71 1007.6
20260504013541 60 223 0.0 3.0 0.00 0.00 0.00 71 1007.6
20260504013056 60 229 1.0 7.0 0.00 0.00 0.00 70 1007.6
20260504012550 60 210 1.0 7.0 0.00 0.00 0.00 68 1007.6
20260504012043 61 284 0.0 5.0 0.00 0.00 0.00 66 1007.6
20260504011537 61 242 1.0 7.0 0.00 0.00 0.00 65 1007.6
20260504011051 61 280 1.0 7.0 0.00 0.00 0.00 64 1007.5
20260504010545 62 230 0.0 4.0 0.00 0.00 0.00 62 1007.6
20260504010058 62 196 0.0 10.0 0.00 0.00 0.00 60 1007.6
20260504005723 63 277 3.0 10.0 0.00 0.00 0.00 60 1007.3
20260504005037 63 275 1.0 5.0 0.00 0.00 0.00 61 1007.3
20260504004551 63 261 0.0 6.0 0.00 0.00 0.00 62 1007.3
20260504004058 63 221 0.0 9.0 0.00 0.00 0.00 61 1007.2
20260504003536 63 286 2.0 10.0 0.00 0.00 0.00 62 1007.2
20260504003051 63 284 1.0 6.0 0.00 0.00 0.00 62 1007.2
20260504002547 63 275 1.0 6.0 0.00 0.00 0.00 63 1007.4
20260504002042 63 267 2.0 6.0 0.00 0.00 0.00 64 1007.4
20260504001558 63 325 1.0 9.0 0.00 0.00 0.00 65 1007.4
20260504001035 63 282 0.0 9.0 0.00 0.00 0.00 66 1007.1
20260504000551 63 337 3.0 6.0 0.00 0.00 0.00 66 1007.1
20260504000048 63 246 1.0 6.0 0.00 0.00 0.00 66 1007.1
20260503235602 63 281 1.0 5.0 0.00 0.00 0.00 67 1007.1
20260503235037 63 285 1.0 7.0 0.00 0.00 0.00 68 1007.1
20260503234551 62 307 2.0 7.0 0.00 0.00 0.00 70 1007.1
20260503234136 62 264 0.0 10.0 0.00 0.00 0.00 70 1006.9
20260503233546 61 272 2.0 10.0 0.00 0.00 0.00 70 1006.9
20260503233041 62 240 1.0 10.0 0.00 0.00 0.00 71 1006.9
20260503232655 62 279 3.0 10.0 0.00 0.00 0.00 70 1007.3
20260503232059 62 286 1.0 6.0 0.00 0.00 0.00 71 1007.3
20260503231552 62 261 1.0 13.0 0.00 0.00 0.00 72 1007.3
20260503231048 62 251 1.0 13.0 0.00 0.00 0.00 72 1007.5
20260503230602 62 286 1.0 5.0 0.00 0.00 0.00 70 1007.5
20260503230037 62 296 0.0 7.0 0.00 0.00 0.00 71 1007.5
20260503225552 62 202 3.0 7.0 0.00 0.00 0.00 71 1007.6
20260503225108 62 227 1.0 9.0 0.00 0.00 0.00 69 1007.6
20260503224542 62 281 2.0 9.0 0.00 0.00 0.00 69 1007.6
20260503224038 62 206 2.0 6.0 0.00 0.00 0.00 68 1007.8
20260503223536 62 228 0.0 11.0 0.00 0.00 0.00 68 1007.8
20260503223052 62 233 2.0 11.0 0.00 0.00 0.00 67 1007.8
20260503222606 62 197 2.0 12.0 0.00 0.00 0.00 68 1007.8
20260503222045 62 242 3.0 11.0 0.00 0.00 0.00 67 1007.8
20260503221542 62 279 2.0 11.0 0.00 0.00 0.00 66 1007.8
20260503221036 62 198 1.0 12.0 0.00 0.00 0.00 66 1007.8
20260503220535 62 285 4.0 12.0 0.00 0.00 0.00 64 1007.8
20260503220049 62 257 2.0 6.0 0.00 0.00 0.00 62 1007.8
20260503215620 62 245 0.0 10.0 0.00 0.00 0.00 62 1008.2
20260503215045 62 273 3.0 8.0 0.00 0.00 0.00 62 1008.2
20260503214541 62 246 0.0 4.0 0.00 0.00 0.00 63 1008.2
20260503214037 62 232 1.0 10.0 0.00 0.00 0.00 63 1008.2
20260503213551 62 277 3.0 10.0 0.00 0.00 0.00 62 1008.2
20260503213047 62 232 1.0 11.0 0.00 0.00 0.00 62 1008.2
20260503212604 63 178 0.0 11.0 0.00 0.00 0.00 62 1008.1
20260503212042 63 238 0.0 7.0 0.00 0.00 0.00 61 1008.1
20260503211538 63 271 0.0 10.0 0.00 0.00 0.00 60 1008.1
20260503211037 63 241 1.0 10.0 0.00 0.00 0.00 60 1008.2
20260503210537 63 271 2.0 7.0 0.00 0.00 0.00 59 1008.2
20260503210107 63 240 1.0 9.0 0.00 0.00 0.00 59 1008.2
20260503205635 63 242 2.0 9.0 0.00 0.00 0.00 56 1008.2
20260503205102 63 290 1.0 8.0 0.00 0.00 0.00 58 1008.2
20260503204537 64 225 3.0 8.0 0.00 0.00 0.00 59 1008.2
20260503204112 64 281 2.0 10.0 0.00 0.00 0.00 58 1008.2
20260503203547 64 265 3.0 11.0 0.00 0.00 0.00 57 1008.2
20260503203101 64 175 3.0 11.0 0.00 0.00 0.00 57 1008.2
20260503202552 64 317 1.0 11.0 0.00 0.00 0.00 55 1008.2
20260503202053 64 275 3.0 11.0 0.00 0.00 0.00 53 1008.2
20260503201548 65 263 2.0 4.0 0.00 0.00 0.00 53 1008.2
20260503201043 65 227 1.0 6.0 0.00 0.00 0.00 53 1008.2
20260503200602 65 275 0.0 13.0 0.00 0.00 0.00 51 1008.2
20260503200057 65 242 1.0 13.0 0.00 0.00 0.00 51 1008.2
20260503195551 65 287 0.0 3.0 0.00 0.00 0.00 52 1008.4
20260503195047 65 244 0.0 3.0 0.00 0.00 0.00 54 1008.4
20260503194546 64 252 0.0 3.0 0.00 0.00 0.00 53 1008.4
20260503194102 64 246 0.0 5.0 0.00 0.00 0.00 55 1008.5
20260503193536 63 246 0.0 5.0 0.00 0.00 0.00 55 1008.5
20260503193051 63 235 2.0 6.0 0.00 0.00 0.00 55 1008.5
20260503192626 63 274 1.0 6.0 0.00 0.00 0.00 56 1008.7
20260503192043 64 216 0.0 8.0 0.00 0.00 0.00 57 1008.7
20260503191542 64 284 0.0 8.0 0.00 0.00 0.00 57 1008.7
20260503191037 64 269 1.0 4.0 0.00 0.00 0.00 58 1008.7
20260503190706 64 252 0.0 7.0 0.00 0.00 0.00 58 1008.7
20260503190101 63 223 0.0 6.0 0.00 0.00 0.00 59 1008.7
20260503185550 63 286 0.0 10.0 0.00 0.00 0.00 59 1008.8
20260503185046 63 209 4.0 10.0 0.00 0.00 0.00 59 1008.8
20260503184542 63 121 2.0 6.0 0.00 0.00 0.00 58 1008.8
20260503184039 63 226 0.0 3.0 0.00 0.00 0.00 60 1008.8
20260503183542 63 233 1.0 5.0 0.00 0.00 0.00 59 1008.8
20260503183056 63 274 2.0 5.0 0.00 0.00 0.00 59 1008.8
20260503182551 62 277 0.0 5.0 0.00 0.00 0.00 61 1008.8
20260503182139 62 279 0.0 6.0 0.00 0.00 0.00 62 1008.8
20260503181607 62 275 2.0 6.0 0.00 0.00 0.00 61 1008.8
20260503181040 61 274 0.0 6.0 0.00 0.00 0.00 62 1009.0
20260503180555 61 196 2.0 7.0 0.00 0.00 0.00 61 1009.0
20260503180050 61 196 0.0 7.0 0.00 0.00 0.00 61 1009.0
20260503175605 62 324 1.0 5.0 0.00 0.00 0.00 61 1008.9
20260503175040 62 234 0.0 5.0 0.00 0.00 0.00 62 1008.9
20260503174536 61 234 0.0 7.0 0.00 0.00 0.00 62 1008.9
20260503174035 61 246 0.0 7.0 0.00 0.00 0.00 61 1008.8
20260503173550 61 257 1.0 6.0 0.00 0.00 0.00 64 1008.8
20260503173107 61 283 0.0 5.0 0.00 0.00 0.00 67 1008.8
20260503172601 61 282 0.0 6.0 0.00 0.00 0.00 67 1008.8
20260503172036 61 282 0.0 6.0 0.00 0.00 0.00 67 1008.8
20260503171608 61 253 0.0 2.0 0.00 0.00 0.00 67 1008.8
20260503171113 61 259 0.0 2.0 0.00 0.00 0.00 68 1008.7
20260503170542 60 261 0.0 2.0 0.00 0.00 0.00 66 1008.7
20260503160105 59 245 0.0 3.0 0.00 0.00 0.00 74 1008.2
20260503150546 58 144 0.0 0.0 0.00 0.00 0.00 77 1008.0
20260503131046 57 270 0.0 4.0 0.00 0.00 0.00 85 1007.0
20260503130602 57 267 0.0 1.0 0.00 0.00 0.00 86 1007.0
20260503110559 56 269 0.0 0.0 0.00 0.00 0.00 83 1006.9
20260503081537 57 269 0.0 2.0 0.00 0.00 0.00 85 1007.7
20260503081155 57 269 0.0 0.0 0.00 0.00 0.00 86 1007.6
20260503080531 57 269 0.0 0.0 0.00 0.00 0.00 86 1007.6
20260503072541 56 269 0.0 0.0 0.00 0.00 0.00 88 1007.3
20260503072103 56 269 0.0 0.0 0.00 0.00 0.00 88 1007.3
20260503071543 56 269 0.0 0.0 0.00 0.00 0.00 88 1007.3
20260503071039 56 269 0.0 0.0 0.00 0.00 0.00 88 1007.1
20260503070534 56 269 0.0 0.0 0.00 0.00 0.00 88 1007.1